[[{"header":{"parameterUnit":"m.s-1","parameterCategory":2,"la1":30.2991,"la2":30.254,"lo1":-89.0895,"lo2":-89.0444,"dy":0.0017,"dx":0.0017,"nx":28,"ny":28,"refTime":"2024-02-28T09:00:00:Z","depth":"0","parameterNumber":2,"parameterNumberName":"U-component_of_CURRENTS"},"data":[0,0,0,0,0,0,0,0,0,0,0,0,0,0,0,0,0,0,0,0,0,0,0,0,0,0,0,0,0,0,0,0,0,0,0,0,0,0,0,0,0,0,0,0,0,0,0,0,0,0,0,0,0,0,0,0,0,0,-0.2393,-0.2394,0,-0.2411,-0.2411,-0.2411,-0.2379,-0.2378,-0.2377,-0.2376,-0.234,-0.234,-0.234,0,0,0,0,0,0,0,0,0,0,0,0,0,-0.233,-0.2331,-0.2393,-0.2394,-0.2394,-0.2411,-0.2411,-0.2411,-0.2379,-0.2378,-0.2377,-0.2376,-0.234,-0.234,-0.234,0,0,0,0,0,0,0,0,0,0,0,0,0,-0.2351,-0.2332,-0.2393,-0.2382,-0.2381,-0.2411,-0.2411,-0.2411,-0.2379,-0.2378,-0.2376,-0.2375,-0.234,-0.234,-0.234,-0.2365,0,0,-0.2339,-0.2339,0,0,0,0,0,0,0,0,-0.235,-0.2354,-0.2383,-0.2383,-0.2382,-0.2393,-0.2375,-0.2393,-0.2379,-0.2378,-0.2376,-0.2375,-0.2355,-0.2354,-0.2358,-0.2363,-0.2362,-0.2339,-0.2339,-0.2339,-0.2339,0,0,0,0,0,0,0,-0.2349,-0.2353,-0.2398,-0.2384,-0.2383,-0.2375,-0.2376,-0.2378,-0.2371,-0.2378,-0.2376,-0.2382,-0.2354,-0.2358,-0.2356,-0.2361,-0.2339,-0.2339,-0.2339,-0.2339,-0.236,-0.236,0,0,0,0,0,0,-0.2353,-0.2352,-0.2398,-0.2399,-0.2365,-0.2377,-0.2379,-0.2389,-0.2372,-0.2369,-0.2383,-0.238,-0.2359,-0.2357,-0.2355,-0.2368,-0.2339,-0.2339,-0.2339,-0.2359,-0.236,-0.236,0,0,0,0,0,0,-0.2351,-0.2357,-0.2397,-0.2377,-0.2381,-0.238,-0.2392,-0.239,-0.2387,-0.2377,-0.2372,-0.2381,-0.2358,-0.2355,-0.2354,-0.2366,-0.2339,-0.2338,-0.2358,-0.2359,-0.236,-0.2403,0,0,0,0,0,0,-0.235,-0.2356,-0.236,-0.2377,-0.2383,-0.2412,-0.2393,-0.2391,-0.2394,-0.2391,-0.2374,-0.237,-0.2357,-0.2354,-0.2353,-0.2365,-0.2338,-0.2357,-0.2359,-0.236,-0.24,-0.2405,-0.2409,0,0,0,0,0,-0.2347,-0.2359,-0.236,-0.2365,-0.239,-0.2413,-0.2415,-0.2407,-0.2395,-0.2399,-0.2386,-0.237,-0.2361,-0.2355,-0.2354,-0.2366,-0.2357,-0.2358,-0.236,-0.2399,-0.2404,-0.2409,0,0,0,0,0,0,-0.2331,-0.2358,-0.2359,-0.2377,-0.2393,-0.2408,-0.241,-0.241,-0.2405,-0.2398,-0.2381,-0.2377,-0.2382,-0.2369,-0.2362,-0.2376,-0.2356,-0.2357,-0.2386,-0.2391,-0.2395,-0.2403,-0.2338,0,0,0,0,0,-0.2333,-0.2346,-0.2371,-0.2383,-0.2393,-0.2403,-0.2409,-0.241,-0.2412,-0.2408,-0.2399,-0.2389,-0.2391,-0.2385,-0.2384,-0.2393,-0.2386,-0.2399,-0.2403,-0.2407,-0.2413,-0.2415,-0.242,-0.2365,-0.2365,-0.2365,0,0,-0.2328,-0.2345,-0.2351,-0.238,-0.239,-0.2414,-0.2402,-0.2417,-0.2433,-0.2406,-0.2415,-0.2407,-0.2398,-0.2407,-0.2407,-0.2395,-0.242,-0.2409,-0.2412,-0.2416,-0.2417,-0.2422,-0.2427,-0.2367,-0.2366,-0.2366,0,0,-0.2331,-0.2344,-0.2357,-0.2378,-0.2402,-0.2416,-0.2421,-0.244,-0.2441,-0.2455,-0.2442,-0.2441,-0.2438,-0.2438,-0.2437,-0.2466,-0.2446,-0.2461,-0.2486,-0.2488,-0.2492,-0.2496,-0.2499,-0.2503,-0.2459,-0.2459,-0.2459,0,-0.2322,-0.2348,-0.2363,-0.2389,-0.2407,-0.2419,-0.2443,-0.2457,-0.2471,-0.2477,-0.2459,-0.2467,-0.2456,-0.2476,-0.2482,-0.2476,-0.2472,-0.2467,-0.2493,-0.2497,-0.25,-0.2503,-0.2506,-0.2461,-0.2461,-0.2461,-0.2461,0,-0.2339,-0.2364,-0.2376,-0.2413,-0.2435,-0.2457,-0.2487,-0.2502,-0.2504,-0.2514,-0.2529,-0.2519,-0.2518,-0.2519,-0.2508,-0.253,-0.2518,-0.2502,-0.2481,-0.2508,-0.2509,-0.2512,-0.2465,-0.2464,-0.2463,-0.2463,0,0,-0.2305,-0.2374,-0.2375,-0.2401,-0.2451,-0.247,-0.2507,-0.2541,-0.2563,-0.2567,-0.2589,-0.2591,-0.2579,-0.2577,-0.2566,-0.2568,-0.2587,-0.2544,-0.2543,-0.2549,-0.2592,-0.2544,-0.2542,-0.2572,-0.2572,-0.2573,-0.2586,0,-0.231,-0.2358,-0.2395,-0.244,-0.2469,-0.2506,-0.2543,-0.2575,-0.2593,-0.2619,-0.2617,-0.2628,-0.2604,-0.2601,-0.2603,-0.2593,-0.2596,-0.2585,-0.2564,-0.2563,-0.2518,-0.2545,-0.2471,-0.2472,-0.2588,-0.2589,-0.2589,0,-0.2309,-0.2344,-0.2389,-0.2461,-0.2476,-0.2505,-0.256,-0.2596,-0.2642,-0.2655,-0.2668,-0.2669,-0.2681,-0.265,-0.2649,-0.2641,-0.2621,-0.261,-0.261,-0.2552,-0.252,-0.2462,-0.2473,-0.2454,-0.2594,-0.2593,-0.2593,0,-0.2266,-0.2339,-0.2371,-0.2396,-0.2478,-0.2501,-0.2537,-0.2594,-0.2624,-0.2671,-0.2692,-0.2708,-0.271,-0.2695,-0.2667,-0.2659,-0.2662,-0.2646,-0.2588,-0.2584,-0.2511,-0.25,-0.25,-0.2645,-0.2645,-0.2645,-0.2645,0,-0.2256,-0.2281,-0.2352,-0.237,-0.2406,-0.2474,-0.2512,-0.2557,-0.262,-0.2656,-0.2696,-0.272,-0.2719,-0.2719,-0.2689,-0.2646,-0.2675,-0.26,-0.2586,-0.2524,-0.2514,-0.2484,-0.2487,-0.2646,-0.2646,-0.2645,-0.2645,0,-0.22,-0.2254,-0.2291,-0.2367,-0.2387,-0.2405,-0.2483,-0.2515,-0.2588,-0.2637,-0.2651,-0.2724,-0.2729,-0.2724,-0.2707,-0.2667,-0.259,-0.2609,-0.2538,-0.2514,-0.2433,-0.2442,-0.2399,-0.2336,-0.2554,-0.2553,-0.2552,0,-0.2174,-0.2185,-0.2255,-0.2269,-0.2298,-0.234,-0.2372,-0.2468,-0.2507,-0.263,-0.2646,-0.2696,-0.2713,-0.2689,-0.2632,-0.2582,-0.2548,-0.2479,-0.2448,-0.2426,-0.2425,-0.2407,-0.2355,-0.2374,-0.2372,-0.237,-0.2368,0,-0.2103,-0.2125,-0.2149,-0.2182,-0.2213,-0.2254,-0.2308,-0.2344,-0.2463,-0.2523,-0.2607,-0.2642,-0.2655,-0.2589,-0.253,-0.2477,-0.2417,-0.2437,-0.2433,-0.2301,-0.2264,-0.2196,-0.2378,-0.2351,-0.2353,-0.2354,-0.2355,-0.2356,-0.2024,-0.2021,-0.2051,-0.2072,-0.211,-0.2144,-0.214,-0.2231,-0.229,-0.2371,-0.2484,-0.2529,-0.2529,-0.2445,-0.24,-0.2294,-0.2299,-0.2222,-0.2241,-0.2231,-0.2145,-0.2291,-0.2233,-0.2234,-0.2234,-0.2235,-0.2236,0,-0.1921,-0.1927,-0.194,-0.1962,-0.1953,-0.2016,-0.2072,-0.2059,-0.2092,-0.2228,-0.2287,-0.2371,-0.2305,-0.231,-0.2232,-0.2135,-0.2065,-0.2066,-0.2034,-0.1993,-0.2138,-0.2104,-0.1993,-0.1993,-0.1993,-0.1993,-0.1993,-0.1993,-0.1865,-0.1835,-0.1845,-0.1787,-0.1798,-0.175,-0.1754,-0.1772,-0.1836,-0.1926,-0.2041,-0.2178,-0.2203,-0.2305,-0.2183,-0.2071,-0.1991,-0.1911,-0.1913,-0.204,-0.2056,-0.2072,-0.2041,-0.1918,-0.1918,-0.1705,-0.1703,-0.1702]},{"header":{"parameterUnit":"m.s-1","parameterCategory":2,"la1":30.2991,"la2":30.254,"lo1":-89.0895,"lo2":-89.0444,"dy":0.0017,"dx":0.0017,"nx":28,"ny":28,"refTime":"2024-02-28T09:00:00:Z","depth":"0","parameterNumber":3,"parameterNumberName":"V-component_of_CURRENTS"},"data":[0,0,0,0,0,0,0,0,0,0,0,0,0,0,0,0,0,0,0,0,0,0,0,0,0,0,0,0,0,0,0,0,0,0,0,0,0,0,0,0,0,0,0,0,0,0,0,0,0,0,0,0,0,0,0,0,0,0,-0.0365,-0.0364,0,-0.0277,-0.0276,-0.0275,-0.0223,-0.0223,-0.0223,-0.0223,-0.0122,-0.012,-0.0117,0,0,0,0,0,0,0,0,0,0,0,0,0,-0.0437,-0.0436,-0.0365,-0.0364,-0.0363,-0.0277,-0.0276,-0.0275,-0.0223,-0.0223,-0.0223,-0.0223,-0.0123,-0.012,-0.0117,0,0,0,0,0,0,0,0,0,0,0,0,0,-0.0382,-0.0436,-0.0365,-0.0328,-0.0324,-0.0278,-0.0276,-0.0274,-0.0223,-0.0223,-0.0223,-0.0223,-0.0124,-0.012,-0.0116,-0.0096,0,0,-0.0104,-0.0103,0,0,0,0,0,0,0,0,-0.0386,-0.038,-0.0334,-0.033,-0.0326,-0.0262,-0.0265,-0.0214,-0.0223,-0.026,-0.0223,-0.0223,-0.0169,-0.0161,-0.0143,-0.0091,-0.0087,-0.0104,-0.0102,-0.01,-0.0099,0,0,0,0,0,0,0,-0.0389,-0.0383,-0.0329,-0.0333,-0.0328,-0.0298,-0.0291,-0.0255,-0.0215,-0.0257,-0.0253,-0.0246,-0.0166,-0.0147,-0.0141,-0.0085,-0.0104,-0.0101,-0.0098,-0.0097,-0.0013,-0.0013,0,0,0,0,0,0,-0.0406,-0.0387,-0.0331,-0.0326,-0.0357,-0.0298,-0.0289,-0.0282,-0.0216,-0.0206,-0.0246,-0.0243,-0.0154,-0.0145,-0.0137,-0.0113,-0.01,-0.0097,-0.0094,-0.0013,-0.0013,-0.0013,0,0,0,0,0,0,-0.0407,-0.0401,-0.0335,-0.0355,-0.0345,-0.0297,-0.0289,-0.028,-0.0262,-0.0208,-0.0197,-0.0238,-0.0153,-0.0142,-0.0107,-0.0108,-0.0095,-0.0091,-0.0012,-0.0013,-0.0013,-0.0061,0,0,0,0,0,0,-0.041,-0.0403,-0.0405,-0.0357,-0.0345,-0.0315,-0.0289,-0.0278,-0.0259,-0.0255,-0.0197,-0.0188,-0.0152,-0.0113,-0.0103,-0.0103,-0.0088,-0.0012,-0.0012,-0.0013,-0.006,-0.0063,-0.0066,0,0,0,0,0,-0.0413,-0.0418,-0.0405,-0.0399,-0.0348,-0.0316,-0.0307,-0.0271,-0.0259,-0.0254,-0.0214,-0.019,-0.0107,-0.011,-0.0098,-0.0097,-0.0012,-0.0012,-0.0013,-0.0058,-0.0062,-0.0066,0,0,0,0,0,0,-0.0449,-0.0412,-0.0397,-0.039,-0.036,-0.0308,-0.0301,-0.0276,-0.024,-0.0238,-0.0186,-0.0174,-0.0144,-0.0115,-0.0119,-0.0073,-0.0057,-0.0055,-0.0096,-0.0099,-0.0102,-0.0114,-0.0085,0,0,0,0,0,-0.046,-0.0455,-0.0412,-0.0408,-0.0395,-0.035,-0.0333,-0.0309,-0.027,-0.0254,-0.0213,-0.0172,-0.0135,-0.0114,-0.0078,-0.0051,-0.0018,-0.0044,-0.0047,-0.005,-0.0052,-0.0003,-0.0002,-0.0013,-0.0013,-0.0013,0,0,-0.0473,-0.0452,-0.0449,-0.0415,-0.0389,-0.0376,-0.0339,-0.0319,-0.0305,-0.0249,-0.0221,-0.0181,-0.0131,-0.0101,-0.0085,-0.0076,-0.003,-0.005,-0.0053,-0.0054,-0.0003,-0.0002,-0.0001,-0.0013,-0.0013,-0.0013,0,0,-0.0501,-0.0479,-0.0486,-0.0463,-0.043,-0.0399,-0.0398,-0.0349,-0.0326,-0.0294,-0.0251,-0.0213,-0.0158,-0.0119,-0.0093,-0.0092,-0.005,-0.0085,-0.0107,-0.0059,-0.0058,-0.0056,-0.0016,-0.001,-0.0085,-0.0085,-0.0085,0,-0.052,-0.0521,-0.0483,-0.0482,-0.0468,-0.0415,-0.0418,-0.0383,-0.0329,-0.0309,-0.0295,-0.0206,-0.0166,-0.012,-0.0121,-0.0099,-0.0068,-0.0097,-0.0064,-0.0061,-0.0059,-0.0018,-0.0011,-0.0088,-0.0087,-0.0087,-0.0087,0,-0.055,-0.0551,-0.0553,-0.0534,-0.0512,-0.0506,-0.0456,-0.0432,-0.0399,-0.0359,-0.0309,-0.0247,-0.0195,-0.0177,-0.0147,-0.0109,-0.0092,-0.0075,-0.0056,-0.0061,-0.0017,-0.0009,-0.0091,-0.009,-0.009,-0.0089,0,0,-0.0593,-0.058,-0.058,-0.0586,-0.0541,-0.0529,-0.0503,-0.0464,-0.0448,-0.0388,-0.0358,-0.0289,-0.025,-0.0219,-0.0171,-0.0129,-0.0085,-0.01,-0.0097,-0.0064,0.0017,0.0064,0.0078,-0.0061,-0.006,-0.0059,0.0039,0,-0.063,-0.0656,-0.0626,-0.064,-0.0649,-0.0591,-0.0572,-0.0525,-0.0476,-0.0432,-0.0354,-0.0309,-0.0267,-0.0243,-0.0192,-0.0107,-0.0065,-0.0113,0.002,0.0024,0.0064,0.0089,0.0123,0.0217,0.0047,0.0049,0.005,0,-0.0668,-0.0683,-0.0712,-0.0703,-0.0699,-0.0691,-0.0651,-0.0626,-0.0544,-0.0505,-0.0437,-0.0369,-0.0287,-0.0258,-0.0115,-0.0147,-0.0075,-0.0012,-0.0006,0.0061,0.0087,0.0196,0.0239,0.0375,0.0062,0.0061,0.0061,0,-0.0729,-0.0739,-0.077,-0.0765,-0.0744,-0.074,-0.072,-0.0653,-0.0633,-0.0549,-0.0521,-0.0407,-0.0348,-0.0239,-0.0097,-0.0108,0.0061,0.0064,0.0174,0.0178,0.0246,0.0255,0.0435,0.0153,0.0153,0.0152,0.0152,0,-0.0782,-0.0803,-0.0805,-0.0821,-0.0852,-0.0805,-0.0809,-0.0769,-0.0707,-0.0684,-0.0567,-0.0515,-0.0342,-0.0218,-0.0102,0.0074,0.0062,0.018,0.0213,0.023,0.0235,0.0388,0.0443,0.0156,0.0155,0.0155,0.0154,0,-0.0841,-0.0841,-0.0879,-0.088,-0.0885,-0.0905,-0.0884,-0.0881,-0.081,-0.0774,-0.075,-0.0588,-0.0412,-0.0231,-0.0035,0.0071,0.0323,0.0285,0.0294,0.0327,0.0547,0.0597,0.0811,0.0883,0.0421,0.0423,0.0425,0,-0.0874,-0.0903,-0.0937,-0.0968,-0.0973,-0.0992,-0.1004,-0.0947,-0.0932,-0.0817,-0.08,-0.0618,-0.0472,-0.0147,0.0086,0.0321,0.0416,0.047,0.0456,0.058,0.066,0.0693,0.0739,0.0526,0.0529,0.053,0.0532,0,-0.0935,-0.0945,-0.0979,-0.1053,-0.1084,-0.1112,-0.1115,-0.1118,-0.1039,-0.0979,-0.0858,-0.0729,-0.0386,-0.0066,0.0253,0.0381,0.0585,0.0514,0.065,0.0771,0.0812,0.0889,0.0432,0.0549,0.0547,0.0546,0.0545,0.0544,-0.0972,-0.1019,-0.1069,-0.1133,-0.1178,-0.1215,-0.1235,-0.1208,-0.1175,-0.1064,-0.0915,-0.0691,-0.0206,0.0271,0.0433,0.0784,0.0737,0.0868,0.0921,0.0944,0.1016,0.0592,0.0739,0.0739,0.0738,0.0738,0.0738,0,-0.102,-0.1073,-0.1144,-0.1216,-0.1276,-0.1276,-0.1296,-0.1289,-0.1248,-0.1093,-0.0936,-0.0404,0.0068,0.0491,0.102,0.119,0.1209,0.126,0.1317,0.1346,0.0987,0.0993,0.1193,0.1193,0.1193,0.1193,0.1193,0.1193,-0.1047,-0.1132,-0.1174,-0.1286,-0.1331,-0.1389,-0.14,-0.1365,-0.1262,-0.0999,-0.0706,-0.0462,0.0207,0.1114,0.1579,0.1587,0.1724,0.1703,0.1774,0.1528,0.1495,0.1463,0.1484,0.1784,0.1784,0.2112,0.2116,0.2118]}],[{"header":{"parameterUnit":"m.s-1","parameterCategory":2,"la1":30.2991,"la2":30.254,"lo1":-89.0895,"lo2":-89.0444,"dy":0.0017,"dx":0.0017,"nx":28,"ny":28,"refTime":"2024-02-28T09:00:00:Z","depth":"2","parameterNumber":2,"parameterNumberName":"U-component_of_CURRENTS"},"data":[0,0,0,0,0,0,0,0,0,0,0,0,0,0,0,0,0,0,0,0,0,0,0,0,0,0,0,0,0,0,0,0,0,0,0,0,0,0,0,0,0,0,0,0,0,0,0,0,0,0,0,0,0,0,0,0,0,0,-0.2245,-0.2246,0,-0.2262,-0.2262,-0.2262,-0.2234,-0.2234,-0.2233,-0.2232,-0.2201,-0.2201,-0.2201,0,0,0,0,0,0,0,0,0,0,0,0,0,-0.2188,-0.2189,-0.2245,-0.2246,-0.2246,-0.2262,-0.2262,-0.2262,-0.2234,-0.2234,-0.2233,-0.2232,-0.2201,-0.2201,-0.2201,0,0,0,0,0,0,0,0,0,0,0,0,0,-0.2207,-0.2189,-0.2245,-0.2236,-0.2235,-0.2262,-0.2262,-0.2262,-0.2235,-0.2234,-0.2232,-0.2231,-0.2201,-0.2201,-0.2201,-0.2222,0,0,-0.22,-0.22,0,0,0,0,0,0,0,0,-0.2206,-0.2209,-0.2237,-0.2237,-0.2236,-0.2247,-0.223,-0.2247,-0.2235,-0.2233,-0.2232,-0.2231,-0.2214,-0.2213,-0.2216,-0.2221,-0.2219,-0.22,-0.22,-0.22,-0.22,0,0,0,0,0,0,0,-0.2205,-0.2208,-0.225,-0.2237,-0.2237,-0.223,-0.2231,-0.2233,-0.2227,-0.2233,-0.2231,-0.2237,-0.2213,-0.2216,-0.2215,-0.2219,-0.22,-0.22,-0.22,-0.22,-0.2222,-0.2223,0,0,0,0,0,0,-0.2209,-0.2207,-0.2249,-0.225,-0.222,-0.2232,-0.2234,-0.2243,-0.2228,-0.2226,-0.2238,-0.2236,-0.2217,-0.2215,-0.2214,-0.223,-0.22,-0.22,-0.22,-0.2222,-0.2222,-0.2223,0,0,0,0,0,0,-0.2207,-0.2212,-0.2249,-0.223,-0.2235,-0.2235,-0.2245,-0.2244,-0.2243,-0.2233,-0.2229,-0.2239,-0.2216,-0.2214,-0.2215,-0.2229,-0.22,-0.22,-0.2221,-0.2222,-0.2223,-0.2268,0,0,0,0,0,0,-0.2206,-0.2212,-0.2216,-0.2231,-0.2236,-0.2264,-0.2246,-0.2245,-0.225,-0.2247,-0.2232,-0.2229,-0.2215,-0.2215,-0.2215,-0.2228,-0.22,-0.222,-0.2221,-0.2222,-0.2265,-0.227,-0.2274,0,0,0,0,0,-0.2204,-0.2215,-0.2216,-0.2221,-0.2243,-0.2265,-0.2266,-0.2261,-0.2251,-0.2255,-0.2245,-0.2229,-0.2223,-0.2216,-0.2215,-0.2229,-0.2219,-0.2221,-0.2222,-0.2263,-0.2269,-0.2274,0,0,0,0,0,0,-0.2191,-0.2214,-0.2216,-0.2233,-0.2248,-0.226,-0.2264,-0.2265,-0.2262,-0.2256,-0.224,-0.2236,-0.2243,-0.2231,-0.2224,-0.2239,-0.2218,-0.222,-0.225,-0.2255,-0.2259,-0.2267,-0.2199,0,0,0,0,0,-0.2193,-0.2205,-0.2228,-0.224,-0.2249,-0.2258,-0.2265,-0.2267,-0.2269,-0.2267,-0.2259,-0.2251,-0.2252,-0.2248,-0.2247,-0.2256,-0.2249,-0.2263,-0.2268,-0.2272,-0.2277,-0.2279,-0.2284,-0.2228,-0.2228,-0.2228,0,0,-0.2189,-0.2205,-0.221,-0.2238,-0.2247,-0.227,-0.2259,-0.2274,-0.2291,-0.2265,-0.2277,-0.2269,-0.2259,-0.2269,-0.2271,-0.2258,-0.2285,-0.2274,-0.2277,-0.2281,-0.2281,-0.2287,-0.2291,-0.2229,-0.2229,-0.2229,0,0,-0.2194,-0.2206,-0.2219,-0.2239,-0.2263,-0.2275,-0.2282,-0.23,-0.2302,-0.2318,-0.2305,-0.2306,-0.2304,-0.2303,-0.2302,-0.2331,-0.2312,-0.2328,-0.2354,-0.2356,-0.236,-0.2364,-0.2368,-0.2372,-0.2327,-0.2327,-0.2327,0,-0.2187,-0.2212,-0.2225,-0.225,-0.2268,-0.228,-0.2303,-0.2317,-0.2332,-0.2339,-0.2324,-0.2333,-0.2322,-0.2341,-0.2349,-0.2343,-0.2338,-0.2334,-0.2362,-0.2365,-0.2369,-0.2371,-0.2375,-0.2329,-0.2329,-0.2329,-0.2328,0,-0.2205,-0.2228,-0.224,-0.2275,-0.2297,-0.2319,-0.2348,-0.2364,-0.2368,-0.2378,-0.2395,-0.2385,-0.2386,-0.2387,-0.2376,-0.2399,-0.2387,-0.237,-0.2348,-0.2377,-0.2378,-0.2381,-0.2332,-0.2332,-0.2331,-0.233,0,0,-0.2175,-0.2239,-0.2241,-0.2266,-0.2313,-0.2332,-0.2369,-0.2403,-0.2425,-0.2432,-0.2454,-0.2458,-0.2447,-0.2446,-0.2435,-0.2437,-0.2457,-0.2414,-0.2413,-0.2419,-0.2463,-0.2415,-0.2414,-0.2443,-0.2443,-0.2444,-0.2457,0,-0.218,-0.2227,-0.2261,-0.2305,-0.2332,-0.2369,-0.2404,-0.2437,-0.2456,-0.2482,-0.2481,-0.2494,-0.2472,-0.2471,-0.2473,-0.2463,-0.2467,-0.2456,-0.2433,-0.2433,-0.2388,-0.2416,-0.2214,-0.2205,-0.2459,-0.246,-0.246,0,-0.2181,-0.2214,-0.2258,-0.2326,-0.2341,-0.237,-0.2424,-0.2459,-0.2505,-0.2519,-0.2534,-0.2535,-0.2548,-0.252,-0.2519,-0.2512,-0.2493,-0.2482,-0.2481,-0.2422,-0.239,-0.2216,-0.2201,-0.2465,-0.2465,-0.2464,-0.2464,0,-0.2141,-0.2211,-0.2243,-0.2267,-0.2345,-0.2368,-0.2404,-0.2459,-0.2489,-0.2537,-0.2558,-0.2575,-0.2578,-0.2565,-0.2539,-0.253,-0.2534,-0.2517,-0.2459,-0.2456,-0.2273,-0.2252,-0.2516,-0.2516,-0.2516,-0.2516,-0.2516,0,-0.2133,-0.2157,-0.2226,-0.2244,-0.228,-0.2345,-0.2384,-0.2428,-0.2489,-0.2522,-0.2564,-0.2586,-0.2588,-0.2589,-0.256,-0.2518,-0.2547,-0.2472,-0.2457,-0.2283,-0.2265,-0.2477,-0.2472,-0.2517,-0.2517,-0.2517,-0.2516,0,-0.208,-0.2133,-0.2169,-0.2243,-0.2262,-0.2282,-0.2357,-0.2388,-0.246,-0.2506,-0.2521,-0.2591,-0.2596,-0.2592,-0.2577,-0.2537,-0.2506,-0.2481,-0.2283,-0.2244,-0.2426,-0.2423,-0.2429,-0.2428,-0.2426,-0.2425,-0.2424,0,-0.2056,-0.2069,-0.2136,-0.215,-0.218,-0.2222,-0.2252,-0.2345,-0.2381,-0.2497,-0.251,-0.256,-0.257,-0.2548,-0.2476,-0.2425,-0.2476,-0.2218,-0.2169,-0.2433,-0.2418,-0.2417,-0.2417,-0.1945,-0.194,-0.1936,-0.1933,0,-0.199,-0.2012,-0.2036,-0.2069,-0.2099,-0.2137,-0.2189,-0.222,-0.2333,-0.2386,-0.246,-0.2488,-0.2484,-0.2345,-0.2284,-0.2221,-0.2213,-0.2139,-0.2451,-0.2007,-0.1979,-0.1964,-0.1978,-0.1898,-0.1901,-0.1904,-0.1906,-0.1907,-0.1915,-0.1913,-0.1943,-0.1964,-0.2,-0.2028,-0.202,-0.2097,-0.2144,-0.2186,-0.2305,-0.2272,-0.226,-0.2071,-0.1978,-0.189,-0.2038,-0.1929,-0.1939,-0.1954,-0.1904,-0.1876,-0.1767,-0.177,-0.1772,-0.1774,-0.1776,0,-0.1815,-0.1824,-0.1836,-0.1856,-0.1842,-0.1907,-0.1952,-0.1915,-0.1923,-0.1989,-0.2016,-0.1824,-0.1749,-0.1737,-0.1558,-0.1541,-0.1504,-0.1469,-0.1407,-0.1442,-0.1474,-0.1399,-0.1128,-0.1126,-0.1125,-0.1123,0,0,-0.1761,-0.1731,-0.174,-0.1679,-0.1691,-0.1633,-0.1631,-0.16,-0.1603,-0.1547,-0.152,-0.1649,-0.1694,-0.1409,-0.1345,-0.1209,-0.1312,-0.115,-0.1667,-0.1628,-0.1658,-0.1734,-0.1658,0,0,0,0,0]},{"header":{"parameterUnit":"m.s-1","parameterCategory":2,"la1":30.2991,"la2":30.254,"lo1":-89.0895,"lo2":-89.0444,"dy":0.0017,"dx":0.0017,"nx":28,"ny":28,"refTime":"2024-02-28T09:00:00:Z","depth":"2","parameterNumber":3,"parameterNumberName":"V-component_of_CURRENTS"},"data":[0,0,0,0,0,0,0,0,0,0,0,0,0,0,0,0,0,0,0,0,0,0,0,0,0,0,0,0,0,0,0,0,0,0,0,0,0,0,0,0,0,0,0,0,0,0,0,0,0,0,0,0,0,0,0,0,0,0,-0.0284,-0.0283,0,-0.0197,-0.0196,-0.0195,-0.0144,-0.0144,-0.0144,-0.0144,-0.0044,-0.0042,-0.0039,0,0,0,0,0,0,0,0,0,0,0,0,0,-0.0355,-0.0355,-0.0284,-0.0283,-0.0282,-0.0197,-0.0196,-0.0194,-0.0144,-0.0144,-0.0144,-0.0144,-0.0045,-0.0042,-0.0039,0,0,0,0,0,0,0,0,0,0,0,0,0,-0.0301,-0.0354,-0.0284,-0.0248,-0.0244,-0.0197,-0.0196,-0.0194,-0.0144,-0.0144,-0.0144,-0.0144,-0.0046,-0.0042,-0.0038,-0.0016,0,0,-0.0026,-0.0025,0,0,0,0,0,0,0,0,-0.0304,-0.0298,-0.0254,-0.025,-0.0246,-0.0183,-0.0184,-0.0134,-0.0144,-0.0181,-0.0144,-0.0144,-0.009,-0.0083,-0.0065,-0.0012,-0.0007,-0.0026,-0.0024,-0.0022,-0.0021,0,0,0,0,0,0,0,-0.0308,-0.0301,-0.0248,-0.0253,-0.0248,-0.0218,-0.0211,-0.0174,-0.0136,-0.0177,-0.0174,-0.0167,-0.0088,-0.0069,-0.0062,-0.0006,-0.0026,-0.0023,-0.002,-0.0019,0.0066,0.0066,0,0,0,0,0,0,-0.0324,-0.0305,-0.0251,-0.0246,-0.0277,-0.0218,-0.0209,-0.0202,-0.0136,-0.0127,-0.0167,-0.0165,-0.0075,-0.0067,-0.0058,-0.0035,-0.0022,-0.0018,-0.0016,0.0066,0.0066,0.0066,0,0,0,0,0,0,-0.0326,-0.032,-0.0254,-0.0274,-0.0264,-0.0217,-0.0209,-0.02,-0.0184,-0.0129,-0.0118,-0.016,-0.0075,-0.0064,-0.0028,-0.003,-0.0017,-0.0013,0.0066,0.0066,0.0066,0.0016,0,0,0,0,0,0,-0.0329,-0.0321,-0.0324,-0.0276,-0.0264,-0.0235,-0.0209,-0.0199,-0.018,-0.0176,-0.0119,-0.0109,-0.0074,-0.0035,-0.0025,-0.0025,-0.001,0.0066,0.0066,0.0066,0.0018,0.0015,0.0012,0,0,0,0,0,-0.0331,-0.0337,-0.0325,-0.0318,-0.0268,-0.0235,-0.0227,-0.0191,-0.018,-0.0175,-0.0136,-0.0111,-0.0029,-0.0031,-0.002,-0.0019,0.0066,0.0066,0.0066,0.002,0.0015,0.0012,0,0,0,0,0,0,-0.0368,-0.0331,-0.0317,-0.031,-0.028,-0.0228,-0.0222,-0.0197,-0.0161,-0.016,-0.0108,-0.0095,-0.0066,-0.0036,-0.0041,0.0005,0.0021,0.0023,-0.0018,-0.0022,-0.0025,-0.0037,-0.0007,0,0,0,0,0,-0.0379,-0.0374,-0.0332,-0.0328,-0.0316,-0.027,-0.0254,-0.023,-0.0191,-0.0176,-0.0135,-0.0094,-0.0057,-0.0036,0.0,0.0027,0.006,0.0034,0.0031,0.0028,0.0026,0.0074,0.0075,0.0065,0.0065,0.0065,0,0,-0.0393,-0.0372,-0.0369,-0.0336,-0.0309,-0.0296,-0.026,-0.024,-0.0226,-0.017,-0.0142,-0.0103,-0.0053,-0.0022,-0.0007,0.0002,0.0047,0.0028,0.0025,0.0024,0.0074,0.0075,0.0076,0.0065,0.0065,0.0065,0,0,-0.0421,-0.04,-0.0407,-0.0384,-0.0351,-0.032,-0.0319,-0.0271,-0.0247,-0.0216,-0.0173,-0.0136,-0.0081,-0.0041,-0.0015,-0.0015,0.0027,-0.0007,-0.003,0.0016,0.0018,0.0019,0.0056,0.0062,-0.0008,-0.0008,-0.0008,0,-0.0441,-0.0441,-0.0404,-0.0402,-0.0388,-0.0336,-0.0338,-0.0304,-0.025,-0.0231,-0.0218,-0.0129,-0.0089,-0.0042,-0.0043,-0.0022,0.0007,-0.002,0.0012,0.0014,0.0016,0.0055,0.0061,-0.001,-0.001,-0.001,-0.001,0,-0.047,-0.047,-0.0472,-0.0453,-0.0431,-0.0425,-0.0375,-0.0352,-0.032,-0.028,-0.0231,-0.017,-0.0118,-0.01,-0.0071,-0.0034,-0.0018,0.0001,0.002,0.0014,0.0055,0.0063,-0.0014,-0.0013,-0.0012,-0.0012,0,0,-0.0514,-0.0499,-0.05,-0.0504,-0.0459,-0.0447,-0.0422,-0.0382,-0.0367,-0.0308,-0.0279,-0.0211,-0.0173,-0.0141,-0.0094,-0.0053,-0.0013,-0.0026,-0.0022,0.0007,0.0085,0.0126,0.0138,0.0011,0.0012,0.0013,0.0104,0,-0.055,-0.0574,-0.0543,-0.0556,-0.0564,-0.0507,-0.0488,-0.0442,-0.0394,-0.0351,-0.0275,-0.0231,-0.0189,-0.0167,-0.0116,-0.0034,0.0006,-0.0039,0.0089,0.0093,0.0127,0.0148,0.0114,0.0195,0.0112,0.0113,0.0114,0,-0.0587,-0.06,-0.0628,-0.0617,-0.0613,-0.0605,-0.0566,-0.0541,-0.0461,-0.0423,-0.0357,-0.0291,-0.0211,-0.0183,-0.0044,-0.0075,-0.0006,0.0056,0.0062,0.0123,0.0149,0.019,0.0213,0.0127,0.0126,0.0125,0.0125,0,-0.0647,-0.0655,-0.0684,-0.0679,-0.0657,-0.0653,-0.0633,-0.0568,-0.0549,-0.0467,-0.0441,-0.033,-0.0274,-0.0167,-0.003,-0.0039,0.0122,0.0128,0.023,0.0233,0.0242,0.0245,0.0213,0.0213,0.0213,0.0213,0.0213,0,-0.0698,-0.0719,-0.0719,-0.0734,-0.0764,-0.0717,-0.0723,-0.0684,-0.0624,-0.0601,-0.0487,-0.0438,-0.0268,-0.0149,-0.0037,0.0131,0.0122,0.0233,0.0265,0.0224,0.0223,0.0194,0.019,0.0216,0.0216,0.0215,0.0214,0,-0.0757,-0.0756,-0.0792,-0.0792,-0.0797,-0.0817,-0.0797,-0.0794,-0.0726,-0.0692,-0.0669,-0.0513,-0.0345,-0.0169,0.0021,0.0124,0.0275,0.033,0.027,0.0293,0.0352,0.0345,0.0451,0.0454,0.0456,0.0457,0.0459,0,-0.0789,-0.0816,-0.0849,-0.088,-0.0884,-0.0904,-0.0916,-0.086,-0.0846,-0.0736,-0.0721,-0.0548,-0.0411,-0.0099,0.0118,0.0342,0.0334,0.0428,0.0409,0.0359,0.0379,0.0369,0.0359,0.0397,0.0397,0.0398,0.0399,0,-0.0848,-0.0859,-0.0892,-0.0964,-0.0995,-0.1022,-0.1025,-0.1029,-0.0952,-0.0899,-0.0786,-0.0666,-0.0346,-0.0077,0.0227,0.0342,0.0395,0.0449,0.0426,0.0343,0.0316,0.0333,0.0323,0.0404,0.0404,0.0403,0.0403,0.0403,-0.0886,-0.0932,-0.098,-0.1043,-0.1087,-0.1124,-0.1143,-0.1117,-0.1089,-0.0984,-0.085,-0.0645,-0.0362,0.0074,0.0293,0.0485,0.0474,0.0511,0.0506,0.05,0.0479,0.0458,0.0568,0.0568,0.0568,0.0569,0.0569,0,-0.0931,-0.0986,-0.1055,-0.1124,-0.1181,-0.1184,-0.1204,-0.1188,-0.1152,-0.1012,-0.0871,-0.0556,-0.0235,0.005,0.0369,0.0563,0.0529,0.058,0.0503,0.0497,0.0491,0.0467,0.0554,0.0554,0.0555,0.0555,0,0,-0.0958,-0.104,-0.1081,-0.1189,-0.1236,-0.1289,-0.1301,-0.125,-0.115,-0.1003,-0.0839,-0.0599,-0.0234,-0.0008,0.0245,0.0412,0.0394,0.0414,0.0404,0.0276,0.0268,0.0431,0.0384,0,0,0,0,0]}],[{"header":{"parameterUnit":"m.s-1","parameterCategory":2,"la1":30.2991,"la2":30.254,"lo1":-89.0895,"lo2":-89.0444,"dy":0.0017,"dx":0.0017,"nx":28,"ny":28,"refTime":"2024-02-28T09:00:00:Z","depth":"4","parameterNumber":2,"parameterNumberName":"U-component_of_CURRENTS"},"data":[0,0,0,0,0,0,0,0,0,0,0,0,0,0,0,0,0,0,0,0,0,0,0,0,0,0,0,0,0,0,0,0,0,0,0,0,0,0,0,0,0,0,0,0,0,0,0,0,0,0,0,0,0,0,0,0,0,0,-0.1534,-0.1535,0,-0.1585,-0.1586,-0.1586,-0.1612,-0.1612,-0.1612,-0.1613,-0.1654,-0.1655,-0.1656,0,0,0,0,0,0,0,0,0,0,0,0,0,-0.1461,-0.1462,-0.1534,-0.1535,-0.1536,-0.1585,-0.1586,-0.1586,-0.1612,-0.1612,-0.1612,-0.1613,-0.1654,-0.1655,-0.1656,0,0,0,0,0,0,0,0,0,0,0,0,0,-0.1499,-0.1462,-0.1534,-0.1556,-0.1558,-0.1585,-0.1586,-0.1586,-0.1612,-0.1612,-0.1613,-0.1613,-0.1654,-0.1655,-0.1657,-0.166,0,0,-0.1661,-0.1661,0,0,0,0,0,0,0,0,-0.1496,-0.1501,-0.1552,-0.1554,-0.1557,-0.1594,-0.1575,-0.1611,-0.1612,-0.159,-0.1613,-0.1613,-0.1634,-0.1637,-0.1644,-0.1662,-0.1664,-0.1661,-0.1662,-0.1662,-0.1663,0,0,0,0,0,0,0,-0.1494,-0.1499,-0.1552,-0.1553,-0.1556,-0.1564,-0.1569,-0.1582,-0.1608,-0.1592,-0.1594,-0.1603,-0.1636,-0.1643,-0.1645,-0.1664,-0.1661,-0.1662,-0.1663,-0.1664,-0.1742,-0.1743,0,0,0,0,0,0,-0.1491,-0.1497,-0.1551,-0.1554,-0.1529,-0.1565,-0.1571,-0.1581,-0.1609,-0.1614,-0.1602,-0.1604,-0.164,-0.1643,-0.1647,-0.1711,-0.1662,-0.1664,-0.1665,-0.174,-0.1742,-0.1743,0,0,0,0,0,0,-0.1489,-0.1495,-0.1549,-0.1528,-0.1535,-0.1566,-0.1577,-0.1581,-0.1613,-0.1617,-0.1622,-0.1632,-0.164,-0.1645,-0.1681,-0.1711,-0.1664,-0.1666,-0.1739,-0.1741,-0.1743,-0.1802,0,0,0,0,0,0,-0.1487,-0.1494,-0.1513,-0.1528,-0.1537,-0.1581,-0.1577,-0.1582,-0.1617,-0.162,-0.1644,-0.1646,-0.1641,-0.1679,-0.1682,-0.1712,-0.1667,-0.1737,-0.174,-0.1742,-0.1799,-0.1806,-0.1812,0,0,0,0,0,-0.1484,-0.1503,-0.1514,-0.1521,-0.1557,-0.1582,-0.1588,-0.1609,-0.1619,-0.1638,-0.1655,-0.1647,-0.1695,-0.1681,-0.1685,-0.1716,-0.1736,-0.1739,-0.1742,-0.1796,-0.1805,-0.1812,0,0,0,0,0,0,-0.1483,-0.1508,-0.152,-0.1548,-0.1572,-0.1588,-0.1612,-0.1625,-0.1655,-0.1665,-0.1665,-0.1669,-0.1711,-0.1705,-0.1689,-0.1744,-0.1714,-0.1717,-0.1754,-0.1762,-0.1768,-0.1769,-0.1668,0,0,0,0,0,-0.1491,-0.1514,-0.1537,-0.1563,-0.1577,-0.1601,-0.1619,-0.1635,-0.1657,-0.1671,-0.1689,-0.1705,-0.1721,-0.1736,-0.1749,-0.1781,-0.1768,-0.1802,-0.1809,-0.1814,-0.1817,-0.1821,-0.1828,-0.1752,-0.1752,-0.1752,0,0,-0.1499,-0.1517,-0.1531,-0.1565,-0.1586,-0.1616,-0.1613,-0.1651,-0.1682,-0.1671,-0.1726,-0.1733,-0.1736,-0.1772,-0.179,-0.1774,-0.1831,-0.1818,-0.1823,-0.1822,-0.1825,-0.1832,-0.1839,-0.1754,-0.1754,-0.1753,0,0,-0.1516,-0.1542,-0.1565,-0.159,-0.163,-0.1645,-0.1663,-0.1697,-0.1722,-0.1766,-0.1767,-0.1794,-0.1824,-0.1831,-0.1835,-0.1887,-0.1867,-0.1895,-0.193,-0.1935,-0.1941,-0.1946,-0.1943,-0.1948,-0.1897,-0.1897,-0.1897,0,-0.1526,-0.1556,-0.1577,-0.1607,-0.1634,-0.1662,-0.1695,-0.1725,-0.1769,-0.1791,-0.1794,-0.1843,-0.185,-0.1883,-0.1902,-0.1903,-0.1898,-0.19,-0.1943,-0.1948,-0.1952,-0.1948,-0.1952,-0.19,-0.19,-0.19,-0.1899,0,-0.155,-0.1589,-0.1607,-0.1654,-0.1686,-0.1722,-0.1761,-0.1802,-0.1834,-0.1856,-0.1908,-0.1917,-0.1941,-0.1952,-0.1945,-0.1983,-0.1968,-0.1951,-0.1921,-0.1963,-0.1956,-0.196,-0.1905,-0.1904,-0.1903,-0.1902,0,0,-0.1529,-0.1609,-0.1618,-0.1653,-0.1716,-0.1742,-0.1803,-0.1854,-0.1894,-0.1937,-0.1979,-0.2012,-0.2016,-0.2021,-0.202,-0.2029,-0.2059,-0.2009,-0.2008,-0.2004,-0.2067,-0.1933,-0.1923,-0.2051,-0.2052,-0.2052,-0.2052,0,-0.1544,-0.1605,-0.1644,-0.1712,-0.1747,-0.1799,-0.1851,-0.1904,-0.1947,-0.1996,-0.2016,-0.2054,-0.2043,-0.2058,-0.2069,-0.2061,-0.2069,-0.206,-0.2029,-0.2028,-0.1901,-0.1922,-0.2055,-0.2054,-0.2055,-0.2055,-0.2055,0,-0.1545,-0.159,-0.1657,-0.1745,-0.1766,-0.1813,-0.1896,-0.1945,-0.2015,-0.2048,-0.2087,-0.2101,-0.2131,-0.2111,-0.2121,-0.2116,-0.21,-0.2089,-0.2088,-0.1941,-0.1898,-0.2002,-0.2061,-0.206,-0.206,-0.206,-0.2059,0,-0.1504,-0.1597,-0.1653,-0.1684,-0.1784,-0.1829,-0.1882,-0.196,-0.2001,-0.2079,-0.2109,-0.2147,-0.2164,-0.2159,-0.2137,-0.2136,-0.2132,-0.2122,-0.1987,-0.1977,-0.2074,-0.2068,-0.2126,-0.2126,-0.2126,-0.2126,-0.2126,0,-0.1486,-0.1534,-0.1643,-0.1673,-0.1739,-0.1817,-0.1887,-0.1946,-0.2025,-0.2059,-0.2128,-0.2142,-0.2178,-0.2175,-0.2153,-0.2067,-0.2141,-0.1991,-0.1965,-0.21,-0.2097,-0.2076,-0.207,-0.2126,-0.2126,-0.2126,-0.2126,0,-0.1423,-0.1501,-0.1568,-0.1683,-0.1721,-0.1765,-0.1875,-0.1915,-0.2006,-0.2051,-0.2075,-0.2145,-0.2136,-0.2147,-0.2136,-0.2066,-0.2014,-0.1967,-0.211,-0.2094,-0.1858,-0.1856,-0.1817,-0.1813,-0.1808,-0.1805,-0.1802,0,-0.1391,-0.1422,-0.1551,-0.1587,-0.1642,-0.1724,-0.177,-0.1884,-0.1916,-0.2024,-0.2023,-0.2066,-0.2089,-0.1963,-0.1996,-0.1939,-0.1914,-0.1882,-0.187,-0.1845,-0.1826,-0.183,-0.1833,-0.1796,-0.1795,-0.1794,-0.1792,0,-0.1319,-0.1379,-0.1431,-0.1506,-0.1569,-0.1627,-0.1701,-0.1713,-0.1827,-0.1932,-0.1912,-0.1899,-0.1887,-0.1866,-0.1831,-0.1793,-0.19,-0.1839,-0.1847,-0.1836,-0.1819,-0.1804,-0.1812,-0.1778,-0.178,-0.1782,-0.1782,0,-0.1257,-0.1275,-0.1349,-0.1398,-0.1475,-0.1495,-0.1558,-0.1587,-0.1634,-0.1757,-0.1743,-0.1792,-0.1863,-0.1788,-0.1756,-0.1706,-0.1683,-0.1628,-0.1647,-0.1663,-0.161,-0.1566,-0.1421,0,0,0,0,0,-0.1185,-0.119,-0.1232,-0.128,-0.1348,-0.1385,-0.1489,-0.1554,-0.1668,-0.1607,-0.1669,-0.1648,-0.1608,-0.1638,-0.1551,-0.1685,-0.1689,-0.1578,-0.1638,-0.1699,-0.1716,-0.1666,0,0,0,0,0,0,-0.1138,-0.1174,-0.1188,-0.116,-0.1164,-0.1221,-0.128,-0.1365,-0.1341,-0.1463,-0.1447,-0.1537,-0.1519,-0.1617,-0.1508,-0.1516,-0.1519,-0.1616,-0.1612,-0.169,-0.1705,-0.1718,-0.1673,0,0,0,0,0]},{"header":{"parameterUnit":"m.s-1","parameterCategory":2,"la1":30.2991,"la2":30.254,"lo1":-89.0895,"lo2":-89.0444,"dy":0.0017,"dx":0.0017,"nx":28,"ny":28,"refTime":"2024-02-28T09:00:00:Z","depth":"4","parameterNumber":3,"parameterNumberName":"V-component_of_CURRENTS"},"data":[0,0,0,0,0,0,0,0,0,0,0,0,0,0,0,0,0,0,0,0,0,0,0,0,0,0,0,0,0,0,0,0,0,0,0,0,0,0,0,0,0,0,0,0,0,0,0,0,0,0,0,0,0,0,0,0,0,0,-0.0154,-0.0154,0,-0.0091,-0.009,-0.0089,-0.0051,-0.0051,-0.0051,-0.0051,0.0033,0.0035,0.0037,0,0,0,0,0,0,0,0,0,0,0,0,0,-0.0198,-0.0197,-0.0154,-0.0154,-0.0153,-0.0091,-0.009,-0.0089,-0.0051,-0.0051,-0.0051,-0.0051,0.0032,0.0035,0.0037,0,0,0,0,0,0,0,0,0,0,0,0,0,-0.016,-0.0197,-0.0154,-0.0128,-0.0125,-0.0091,-0.009,-0.0089,-0.0051,-0.0051,-0.0051,-0.0051,0.0031,0.0034,0.0038,0.0057,0,0,0.0048,0.0049,0,0,0,0,0,0,0,0,-0.0162,-0.0158,-0.0132,-0.013,-0.0126,-0.008,-0.0075,-0.004,-0.0051,-0.0077,-0.0051,-0.0051,-0.0004,0.0002,0.0016,0.0061,0.0064,0.0048,0.005,0.0051,0.0052,0,0,0,0,0,0,0,-0.0165,-0.016,-0.0127,-0.0132,-0.0128,-0.0104,-0.0099,-0.0068,-0.004,-0.0075,-0.0073,-0.0068,-0.0002,0.0012,0.0018,0.0066,0.0048,0.0051,0.0053,0.0054,0.0126,0.0126,0,0,0,0,0,0,-0.0178,-0.0163,-0.013,-0.0126,-0.0146,-0.0103,-0.0097,-0.0094,-0.0041,-0.0034,-0.0068,-0.0067,0.0007,0.0014,0.0021,0.0039,0.0051,0.0054,0.0056,0.0126,0.0126,0.0126,0,0,0,0,0,0,-0.0179,-0.0176,-0.0132,-0.0144,-0.0137,-0.0103,-0.0099,-0.0093,-0.0082,-0.0036,-0.0028,-0.0065,0.0007,0.0016,0.0046,0.0043,0.0056,0.0059,0.0126,0.0126,0.0126,0.0081,0,0,0,0,0,0,-0.0181,-0.0176,-0.0182,-0.0145,-0.0137,-0.012,-0.0099,-0.0091,-0.0079,-0.0077,-0.003,-0.0022,0.0008,0.004,0.0049,0.0048,0.0061,0.0126,0.0126,0.0126,0.0082,0.0079,0.0076,0,0,0,0,0,-0.0182,-0.019,-0.0182,-0.0178,-0.0144,-0.012,-0.0114,-0.0088,-0.008,-0.0077,-0.0045,-0.0024,0.0045,0.0043,0.0053,0.0053,0.0126,0.0126,0.0126,0.0084,0.008,0.0076,0,0,0,0,0,0,-0.021,-0.0186,-0.0177,-0.0176,-0.0154,-0.0114,-0.0112,-0.0094,-0.0066,-0.0065,-0.0021,-0.0011,0.0013,0.0039,0.0035,0.0073,0.0088,0.009,0.0053,0.0049,0.0046,0.0035,0.0064,0,0,0,0,0,-0.022,-0.0221,-0.019,-0.0191,-0.0183,-0.0149,-0.0138,-0.012,-0.009,-0.0078,-0.0044,-0.001,0.0021,0.0039,0.0069,0.0092,0.0118,0.0097,0.0094,0.0091,0.0089,0.013,0.013,0.0125,0.0125,0.0125,0,0,-0.0233,-0.0219,-0.022,-0.0197,-0.0179,-0.017,-0.0142,-0.0129,-0.012,-0.0073,-0.0052,-0.0019,0.0025,0.0049,0.0062,0.007,0.0105,0.0091,0.0088,0.0088,0.013,0.013,0.0131,0.0125,0.0125,0.0125,0,0,-0.0257,-0.0245,-0.0253,-0.0237,-0.0215,-0.0192,-0.0192,-0.0156,-0.0139,-0.0115,-0.0079,-0.0048,-0.0002,0.0032,0.0054,0.0053,0.0087,0.006,0.0039,0.0078,0.0079,0.008,0.0106,0.011,0.0059,0.0059,0.0059,0,-0.0274,-0.0278,-0.0252,-0.0252,-0.0244,-0.0206,-0.0209,-0.0184,-0.0143,-0.0128,-0.0118,-0.0045,-0.001,0.0029,0.0028,0.0047,0.007,0.0048,0.0074,0.0075,0.0077,0.0105,0.0109,0.0057,0.0057,0.0057,0.0058,0,-0.0297,-0.0303,-0.0306,-0.0295,-0.0281,-0.0278,-0.0242,-0.0226,-0.0203,-0.0172,-0.0134,-0.0081,-0.0039,-0.0022,0.0003,0.0034,0.0045,0.0064,0.0081,0.0075,0.0104,0.011,0.0054,0.0055,0.0055,0.0056,0,0,-0.033,-0.0326,-0.0328,-0.0335,-0.0305,-0.0298,-0.0282,-0.0254,-0.0246,-0.0199,-0.0179,-0.012,-0.0089,-0.0062,-0.0021,0.0015,0.0045,0.0039,0.0042,0.0061,0.0123,0.0115,0.0121,0.0068,0.0069,0.007,0.0135,0,-0.0358,-0.0382,-0.0362,-0.0379,-0.0387,-0.0348,-0.0337,-0.0305,-0.027,-0.024,-0.0176,-0.0143,-0.0104,-0.0087,-0.0043,0.0028,0.0059,0.0025,0.013,0.0133,0.0124,0.0128,0.0073,0.014,0.0141,0.0142,0.0143,0,-0.0384,-0.0399,-0.0427,-0.0429,-0.0428,-0.0428,-0.0407,-0.0391,-0.0333,-0.0305,-0.0252,-0.0199,-0.0132,-0.0105,0.0011,-0.0013,0.0045,0.0098,0.0103,0.0116,0.0136,0.0151,0.0154,0.0153,0.0152,0.0152,0.0151,0,-0.0423,-0.044,-0.047,-0.047,-0.0463,-0.0468,-0.0461,-0.0416,-0.0406,-0.0347,-0.0329,-0.0237,-0.0193,-0.0101,0.0013,0.0011,0.0139,0.0152,0.0199,0.0199,0.0206,0.0205,0.0223,0.0223,0.0223,0.0222,0.0222,0,-0.0454,-0.0478,-0.0498,-0.0513,-0.0549,-0.0521,-0.0538,-0.0512,-0.0474,-0.0462,-0.0371,-0.0335,-0.019,-0.0095,0.0003,0.0121,0.0134,0.0195,0.0218,0.0185,0.018,0.021,0.0208,0.0225,0.0224,0.0224,0.0223,0,-0.0484,-0.0498,-0.0537,-0.0557,-0.0571,-0.0595,-0.0603,-0.0606,-0.0563,-0.0543,-0.0527,-0.0404,-0.0276,-0.0132,0.0027,0.0101,0.0217,0.0252,0.0199,0.0218,0.0251,0.0246,0.0307,0.0308,0.0308,0.0308,0.0308,0,-0.0498,-0.0525,-0.0581,-0.0617,-0.0632,-0.0666,-0.0688,-0.066,-0.0655,-0.0583,-0.0571,-0.0447,-0.0353,-0.0131,0.0019,0.0206,0.0229,0.0282,0.0271,0.0245,0.0261,0.0255,0.0249,0.0309,0.0309,0.0309,0.0309,0,-0.0526,-0.0552,-0.0587,-0.0669,-0.0712,-0.0751,-0.0773,-0.0776,-0.0731,-0.0698,-0.0602,-0.0472,-0.0325,-0.0139,0.0011,0.0144,0.0247,0.0285,0.0285,0.0276,0.0248,0.0262,0.0256,0.031,0.031,0.031,0.031,0,-0.0544,-0.0583,-0.0642,-0.0706,-0.0771,-0.0812,-0.0819,-0.0799,-0.0784,-0.0694,-0.0664,-0.0491,-0.0383,-0.0171,-0.0033,0.0101,0.0129,0.0161,0.0168,0.0169,0.0112,0.0055,0.0077,0,0,0,0,0,-0.0555,-0.0605,-0.0674,-0.0742,-0.0806,-0.084,-0.0863,-0.0852,-0.0813,-0.0756,-0.0706,-0.0566,-0.0337,-0.0227,-0.0096,-0.0038,0.0144,0.0118,0.0181,0.0315,0.0314,0.0271,0,0,0,0,0,0,-0.0565,-0.0635,-0.0675,-0.0758,-0.0808,-0.0868,-0.0885,-0.0859,-0.0812,-0.0755,-0.0629,-0.0549,-0.0323,-0.0416,-0.0099,-0.0055,-0.0002,0.0233,0.0236,0.0316,0.0315,0.0314,0.0269,0,0,0,0,0]}]]